Regional Weather Roundup
Issued by NWS Bismarck, ND

Home | Current Version | Previous Version | Text Only | Print | Product List | Glossary On
Versions: 1 2 3 4 5 6 7 8 9 10 11 12 13 14 15 16 17 18 19 20 21 22 23 24 25 26 27 28 29 30 31 32 33 34 35 36 37 38 39 40 41 42 43 44 45 46 47 48 49 50
000
ASUS43 KBIS 281010
RWRBIS

NWR BROADCAST TEXT
NATIONAL WEATHER SERVICE BISMARCK ND
400 AM CST TUE FEB 28 2017

NOTE: "FAIR" INDICATES FEW OR NO CLOUDS BELOW 12,000 FEET WITH NO
SIGNIFICANT WEATHER AND/OR OBSTRUCTIONS TO VISIBILITY.


CITY           SKY/WX    TMP DP  RH WIND       PRES   REMARKS
WILLISTON      CLOUDY    11   7  84 E6        29.82F WCI   1
MINOT          CLOUDY     6   2  83 N3        29.88F
MINOT AFB      CLOUDY     5   1  85 SE3       29.88F
BISMARCK       CLOUDY    20  17  88 NE9       29.83F WCI   9
DICKINSON      CLOUDY    12   9  87 NE9       29.73F WCI   0
GARRISON         N/A      6   4  91 N5        29.84F WCI  -3
HETTINGER ARPT CLOUDY    19  17  92 E9        29.74S FOG     WCI   8
JAMESTOWN      FAIR      14  11  87 N12       29.85F WCI   0
CARRINGTON     CLOUDY    14  10  85 NE8       29.89F WCI   3
HAZEN            N/A    N/A N/A N/A NE5       29.86F
MANDAN         CLOUDY    18  16  93 NE12      29.81F WCI   5
RUGBY            N/A     -4  -9  77 E7        29.91F WCI -18
STANLEY        PTSUNNY   -6  -8  92 CALM      29.85S
TIOGA          PTSUNNY   -2  -4  92 E5        29.83S WCI -12
WATFORD CITY   CLOUDY     9   7  92 E7        29.81F WCI  -3
$$

CITY           SKY/WX    TMP DP  RH WIND       PRES   REMARKS
GRAND FORKS    CLOUDY    15   7  70 N13       29.93S WCI   1
GRAND FORKS AF FLURRIES  13   7  78 N15       29.93F WCI  -3
DEVILS LAKE    CLOUDY     6   3  87 N7        29.92F WCI  -6
FARGO          FAIR      21  18  88 N14       29.84F WCI   8
CAVALIER         N/A      5   1  85 NW10      29.99S WCI -10
GRAFTON        FAIR       7   1  78 N10       29.99R WCI  -8
GWINNER        FAIR      21  19  93 N15       29.83S WCI   8
ROLLA          FAIR       0  -2  92 N6        29.91S WCI -12
$$

CITY           SKY/WX    TMP DP  RH WIND       PRES   REMARKS
ABERDEEN       FLURRIES  23  18  81 N17       29.77F WCI   9
MOBRIDGE       CLOUDY    25  20  81 NE13      29.75S WCI  14
BUFFALO          N/A     20  17  88 NE13      29.62R WCI   7
RAPID CITY     FOG       25  23  92 E5        29.65F VSB 1   WCI  19
GLASGOW        FAIR      10   6  84 E13       29.71F WCI  -5
SIDNEY         FLURRIES  14  10  84 N5        29.80F WCI   6
WOLF POINT     FAIR       5   1  83 E9        29.78F WCI  -9
GLENDIVE       CLOUDY    18  15  88 NE6       29.74F WCI  10
MILES CITY     CLOUDY    21  17  84 E3        29.70F
BAKER          CLOUDY    19  15  84 E14       29.71S WCI   6
$$

CITY           SKY/WX    TMP DP  RH WIND       PRES   REMARKS
BILLINGS       FAIR      21  18  88 SW15      29.65S WCI   8
GREAT FALLS    FAIR      23  14  68 S13       29.55F WCI  11
REGINA         CLOUDY     3   0  85 SE12      29.82F WCI -13
ESTEVAN        CLEAR     -4  -6  92 E9        29.86F WCI -20
$$





USA.gov is the U.S. government's official web portal to all federal, state and local government web resources and services.